COSMOS 2251 DEB, 34963

Orbit data source: Space-Track

COSMOS 2251 DEB, 34963 is space debris in LEO originally from a launch on Wed, 16 Jun 1993 UTC launched from the Plesetsk Missile And Space Complex (PKMTR). The debris from Iridium 33, an American commercial communications satellite, has been tracked extensively since its accidental collision with the defunct Russian satellite Cosmos 2251 in 2009. This event, occurring at high speed in low Earth orbit (LEO), generated thousands of pieces of space debris, significantly increasing the risk of further collisions. The Iridium 33 debris cloud has impacted space traffic management and orbital debris mitigation strategies, making it a subject of ongoing study in space situational awareness.

Loading next visibility...
Identifier
34963, 1993-036AES
Orbit
LEO
Country
Flag of CISCIS
Related business
Manufacturer
Unknown
Mission
Spacecraft
Bus & Motor
Unknown
Mass
Unknown
Launch date (UTC)
1993-06-16 (33 years ago)
Launch vehicle
Unknown
Launch site
Plesetsk Missile And Space Complex (PKMTR)
Object type
Payload
Rocket body
Debris
Shape & HBR
Unknown shape, 0.1 m
Radar Cross Section
Small (<0.1 m²)

Expand to show TLE details & history
Last TLE update: 3 days ago

TLE from 3 days ago
0 COSMOS 2251 DEB
1 34963U 93036AES 26206.11918308  .00003878  00000-0  93615-3 0  9996
2 34963  74.1705 343.3639 0040681 109.1138 251.4436 14.52982238900585
Epoch: 2026-07-25T02:51Z
TLE epoch observation values (Epoch: 2026-07-25T02:51:37.418Z)
Latitude
-0.00002°
Longitude
-2.37806°
Altitude
727.855 km
Speed
7.487 km/s
True Right ascension
22h 53m 27s
True Declination
0° 00' 00"
Sunlit
Object was in full shadow at epoch
Visualization orbit readout
Latitude
Unknown
Longitude
Unknown
Altitude
Unknown
Speed
Unknown
Apparent Right ascension
Unknown
Apparent Declination
Unknown
Sunlit
N/A
Visualization observer readout
Local Sidereal Time
04:39:21
Azimuth
Unknown
Elevation
Unknown
Doppler factor
Unknown
Orbital elements
Apogee altitude
742.368 km
Perigee altitude
684.669 km
Semi-major axis
7,091.656 km
Eccentricity
0.00407
Inclination
74.1705°
RAAN
343.3639°
Arg. of periapsis
109.1138°
True anomaly
251.00238°
Mean anomaly
251.4436°
Eccentric anomaly
251.22292°
Mean motion
3.63431 °/min
Orbital period
99.06 mins
BSTAR
0.00093615
Loading maneuver chart data...
Computing Atmospheric mass density...

Documentation

Showing up to 5 results
|